GRACE-FO 1 (43476 NORAD) Tracking and Keplerian Element Data

This shows tracking and keplerian element data for the satellite.

Feedback or suggestion? Click here.




ElementValue
Catalog43476
NameGRACE-FO 1
Epoch Orbit37331
Epoch Day34.82329002
Epoch Year2025
RAAN266.9545
Inclination88.9715
Eccentricity0.000911
Argument of Perigee247.1252
Mean Anonmoly112.9039
Mean Motion15.32977472
Decay Rate6.398E-05
L11 43476U 18047A 25034.82329002 .00006398 00000+0 19988-3 0 9997
L22 43476 88.9715 266.9545 0009110 247.1252 112.9039 15.32977472373314



Live tracking and technical data element details for GRACE-FO 1 (NORAD 43476). GRACE-FO 1 can be tracked NOW for your location showing map with azimuth and elevation plus other details from your city location.







IsCatalogInMostPopularTable: catalog: 43476, numindb: 358
Update: records affected: 1



GetName: 43476 GRACE-FO 1

Hit Count: updated at: Thu, 22 May 2025 03:21:33 GMT